[[{"header":{"parameterUnit":"m.s-1","parameterCategory":1,"la1":30.2991,"la2":30.254,"lo1":-89.0895,"lo2":-89.0444,"dy":0.0017,"dx":0.0017,"nx":28,"ny":28,"refTime":"2023-09-10T09:00:00:Z","depth":0,"parameterNumber":2,"parameterNumberName":"U-component_of_WINDS"},"data":[0,0,0,0,0,0,0,0,0,0,0,0,0,0,0,0,0,0,0,0,0,0,0,0,0,0,0,0,0,0,0,0,0,0,0,0,0,0,0,0,0,0,0,0,0,0,0,0,0,0,0,0,0,0,0,0,0,0,0.7061,0.7063,0,0.7206,0.7207,0.7209,0.7251,0.725,0.7249,0.7248,0.7399,0.7404,0.7409,0,0,0,0,0,0,0,0,0,0,0,0,0,0.6821,0.6826,0.7061,0.7063,0.7065,0.7206,0.7208,0.721,0.7251,0.725,0.7249,0.7248,0.7398,0.7403,0.7409,0,0,0,0,0,0,0,0,0,0,0,0,0,0.6942,0.6827,0.7061,0.7102,0.7107,0.7205,0.7208,0.721,0.7251,0.725,0.7249,0.7247,0.7396,0.7403,0.741,0.7478,0,0,0.7432,0.7435,0,0,0,0,0,0,0,0,0.6935,0.6951,0.7094,0.71,0.7105,0.7209,0.7178,0.73,0.7251,0.7197,0.7248,0.7247,0.7337,0.7349,0.7379,0.7485,0.7491,0.7432,0.7437,0.744,0.7442,0,0,0,0,0,0,0,0.6927,0.6945,0.7118,0.7096,0.7103,0.7114,0.713,0.7202,0.7272,0.7201,0.7205,0.7221,0.734,0.7372,0.7383,0.7493,0.7432,0.7438,0.7443,0.7446,0.766,0.7661,0,0,0,0,0,0,0.6911,0.6937,0.7114,0.7123,0.7015,0.7119,0.7137,0.7177,0.7271,0.7284,0.7222,0.7222,0.736,0.7374,0.7388,0.7472,0.744,0.7446,0.745,0.7658,0.766,0.7661,0,0,0,0,0,0,0.6906,0.6926,0.7108,0.7031,0.7055,0.7124,0.7169,0.718,0.7212,0.7287,0.73,0.7241,0.736,0.7378,0.7454,0.7478,0.745,0.7456,0.7657,0.7659,0.7661,0.7641,0,0,0,0,0,0,0.6898,0.6924,0.6951,0.7031,0.7059,0.7171,0.7171,0.7184,0.7224,0.7226,0.7308,0.7321,0.736,0.7443,0.7461,0.7487,0.7462,0.7655,0.7658,0.766,0.764,0.7642,0.7644,0,0,0,0,0,0.689,0.694,0.6952,0.6973,0.7093,0.7173,0.7189,0.7232,0.7226,0.7253,0.73,0.7318,0.7472,0.7451,0.7471,0.75,0.7653,0.7657,0.766,0.7639,0.7642,0.7644,0,0,0,0,0,0,0.6862,0.6952,0.6965,0.7044,0.71,0.718,0.7215,0.7234,0.7294,0.7294,0.7346,0.7364,0.7436,0.7476,0.745,0.7569,0.7563,0.7571,0.754,0.7544,0.7546,0.7534,0.7468,0,0,0,0,0,0.6865,0.6921,0.6997,0.7059,0.7086,0.7145,0.7182,0.721,0.7271,0.7295,0.7349,0.7408,0.7469,0.7509,0.757,0.7646,0.7663,0.7675,0.7677,0.7678,0.7684,0.7725,0.7731,0.7672,0.7672,0.7672,0,0,0.6872,0.6928,0.6961,0.7054,0.7102,0.7159,0.7166,0.7226,0.7269,0.7305,0.7379,0.742,0.749,0.7565,0.7601,0.76,0.7704,0.7682,0.7683,0.7688,0.7729,0.7734,0.7739,0.7674,0.7674,0.7673,0,0,0.6913,0.6961,0.7017,0.7063,0.7134,0.7173,0.7186,0.7262,0.729,0.7365,0.7392,0.7444,0.755,0.7597,0.7635,0.7691,0.771,0.771,0.7721,0.776,0.7765,0.7769,0.7787,0.7794,0.7715,0.7715,0.7715,0,0.6913,0.6999,0.7043,0.7102,0.7142,0.7175,0.7231,0.7275,0.7362,0.7388,0.7386,0.7517,0.7566,0.7652,0.7665,0.7696,0.7712,0.7701,0.776,0.7765,0.777,0.7788,0.7795,0.7715,0.7715,0.7715,0.7715,0,0.6995,0.7054,0.7091,0.7172,0.7216,0.7273,0.7325,0.7365,0.7388,0.7427,0.7502,0.7562,0.7634,0.7657,0.7682,0.7746,0.7743,0.775,0.7745,0.7774,0.7792,0.7799,0.7714,0.7714,0.7714,0.7714,0,0,0.7024,0.7126,0.7139,0.7175,0.7254,0.7301,0.7359,0.7429,0.746,0.7519,0.7568,0.7655,0.7661,0.7704,0.7734,0.7769,0.7807,0.7771,0.7774,0.7775,0.7879,0.7873,0.788,0.7819,0.7821,0.7822,0.7873,0,0.7074,0.7178,0.7218,0.7303,0.7357,0.7389,0.7439,0.7493,0.753,0.7582,0.7624,0.7684,0.7688,0.7713,0.7749,0.7795,0.7828,0.7792,0.7865,0.7868,0.7846,0.789,0.7884,0.7929,0.788,0.7882,0.7882,0,0.7146,0.7203,0.7293,0.7363,0.7387,0.7432,0.7497,0.7547,0.7608,0.7632,0.7679,0.7706,0.7768,0.7759,0.7843,0.7817,0.785,0.7877,0.7879,0.7887,0.7876,0.7898,0.7945,0.7951,0.7894,0.7893,0.7892,0,0.7156,0.7256,0.7321,0.7352,0.7436,0.7466,0.7502,0.7562,0.76,0.7658,0.7683,0.7747,0.7782,0.7831,0.7875,0.7865,0.7955,0.795,0.7976,0.7975,0.7994,0.7992,0.8045,0.8016,0.8016,0.8016,0.8016,0,0.7207,0.726,0.7327,0.7367,0.7427,0.7473,0.7531,0.757,0.7622,0.767,0.7702,0.7747,0.7802,0.7854,0.7889,0.7952,0.7968,0.7989,0.7998,0.7986,0.7983,0.8008,0.8005,0.8018,0.8017,0.8017,0.8017,0,0.7229,0.7275,0.7349,0.7421,0.744,0.7481,0.7543,0.7584,0.7621,0.7682,0.7699,0.7759,0.7821,0.7869,0.7951,0.7974,0.8041,0.8051,0.802,0.8024,0.8047,0.8043,0.8117,0.8128,0.8092,0.8092,0.8093,0,0.7258,0.7299,0.7375,0.7409,0.7444,0.7499,0.7538,0.7584,0.7622,0.7693,0.7725,0.7789,0.7842,0.794,0.7991,0.8053,0.8064,0.8085,0.8073,0.8059,0.8062,0.8059,0.8063,0.8086,0.8087,0.8087,0.8087,0,0.7304,0.7324,0.7378,0.7439,0.7484,0.7535,0.7586,0.7613,0.7668,0.7709,0.7772,0.7814,0.7895,0.7958,0.8025,0.8063,0.8084,0.809,0.8099,0.8087,0.8067,0.8076,0.8022,0.8088,0.8088,0.8088,0.8088,0.8088,0.7329,0.7366,0.7425,0.7483,0.7526,0.7573,0.7614,0.7656,0.7709,0.7778,0.7802,0.7866,0.7925,0.8016,0.8054,0.8105,0.8106,0.812,0.8123,0.8125,0.8123,0.8059,0.8117,0.8117,0.8117,0.8118,0.8118,0,0.7376,0.7414,0.7467,0.7537,0.7583,0.7597,0.7655,0.7692,0.7748,0.78,0.7851,0.7922,0.7983,0.8037,0.81,0.813,0.8141,0.8145,0.8143,0.8151,0.8119,0.8105,0.8135,0.8135,0.8135,0.8135,0.8135,0.8135,0.7405,0.7468,0.7495,0.7579,0.7618,0.768,0.7711,0.7754,0.7796,0.7874,0.7923,0.7958,0.8011,0.8077,0.8133,0.8147,0.8168,0.817,0.8186,0.8156,0.8153,0.8151,0.8137,0.8174,0.8174,0.8214,0.8214,0.8214]},{"header":{"parameterUnit":"m.s-1","parameterCategory":1,"la1":30.2991,"la2":30.254,"lo1":-89.0895,"lo2":-89.0444,"dy":0.0017,"dx":0.0017,"nx":28,"ny":28,"refTime":"2023-09-10T09:00:00:Z","depth":0,"parameterNumber":3,"parameterNumberName":"V-component_of_WINDS"},"data":[0,0,0,0,0,0,0,0,0,0,0,0,0,0,0,0,0,0,0,0,0,0,0,0,0,0,0,0,0,0,0,0,0,0,0,0,0,0,0,0,0,0,0,0,0,0,0,0,0,0,0,0,0,0,0,0,0,0,2.2735,2.2735,0,2.2741,2.2741,2.2741,2.27,2.2699,2.2698,2.2697,2.2702,2.2703,2.2704,0,0,0,0,0,0,0,0,0,0,0,0,0,2.2683,2.2684,2.2735,2.2735,2.2735,2.2741,2.2741,2.2741,2.27,2.2699,2.2698,2.2696,2.2702,2.2703,2.2705,0,0,0,0,0,0,0,0,0,0,0,0,0,2.2699,2.2684,2.2735,2.2715,2.2713,2.2741,2.2741,2.2742,2.2701,2.2699,2.2697,2.2696,2.2701,2.2703,2.2705,2.2751,0,0,2.271,2.2711,0,0,0,0,0,0,0,0,2.2698,2.2701,2.2718,2.2717,2.2715,2.2718,2.2725,2.2745,2.2701,2.2706,2.2697,2.2695,2.2709,2.271,2.2715,2.2751,2.2752,2.2711,2.2712,2.2712,2.2713,0,0,0,0,0,0,0,2.2697,2.27,2.2737,2.2718,2.2716,2.2705,2.2705,2.2728,2.2717,2.2705,2.2702,2.2703,2.2707,2.2713,2.2715,2.2752,2.2711,2.2712,2.2713,2.2714,2.2821,2.2823,0,0,0,0,0,0,2.2699,2.27,2.2737,2.2737,2.2702,2.2707,2.2708,2.2719,2.2716,2.2714,2.2705,2.2701,2.2711,2.2713,2.2715,2.2765,2.2712,2.2714,2.2715,2.282,2.2822,2.2824,0,0,0,0,0,0,2.2698,2.2703,2.2737,2.2718,2.2721,2.271,2.2723,2.272,2.2725,2.2716,2.2714,2.2713,2.271,2.2712,2.2741,2.2765,2.2715,2.2717,2.2818,2.282,2.2823,2.2868,0,0,0,0,0,0,2.2696,2.2702,2.2721,2.2718,2.2722,2.2765,2.2724,2.2721,2.2729,2.2725,2.2723,2.2722,2.2708,2.2739,2.2743,2.2766,2.2718,2.2815,2.2819,2.2822,2.2865,2.2872,2.2879,0,0,0,0,0,2.2695,2.2735,2.2722,2.2727,2.2746,2.2766,2.2768,2.2753,2.2731,2.2749,2.2742,2.2722,2.2762,2.2742,2.2747,2.2771,2.2814,2.2818,2.2822,2.2862,2.2871,2.2879,0,0,0,0,0,0,2.2741,2.2734,2.272,2.2761,2.2764,2.2759,2.2781,2.2764,2.2773,2.2769,2.2749,2.2749,2.278,2.2779,2.2757,2.2813,2.2784,2.2789,2.2813,2.2821,2.2828,2.2827,2.272,0,0,0,0,0,2.2756,2.2774,2.2767,2.2803,2.2805,2.2793,2.2801,2.2789,2.2792,2.2793,2.2789,2.2791,2.2804,2.2813,2.2825,2.2865,2.2862,2.2883,2.2891,2.2896,2.29,2.2917,2.2925,2.2837,2.2837,2.2836,0,0,2.2786,2.2785,2.2798,2.2812,2.2813,2.283,2.2794,2.2816,2.2827,2.2796,2.2822,2.2819,2.2821,2.2854,2.2869,2.2854,2.2924,2.2901,2.2906,2.2906,2.2921,2.293,2.2937,2.2839,2.2839,2.2838,0,0,2.285,2.2853,2.2881,2.2882,2.2884,2.2875,2.2882,2.2879,2.2875,2.2902,2.2877,2.2891,2.2915,2.2915,2.2919,2.298,2.2959,2.2984,2.302,2.3036,2.3043,2.3049,2.3067,2.3074,2.2988,2.2988,2.2989,0,2.2888,2.2914,2.2897,2.2918,2.2924,2.2896,2.2922,2.2925,2.2931,2.2934,2.2918,2.2944,2.2943,2.2974,2.2989,2.2994,2.2998,2.2983,2.3044,2.3049,2.3055,2.3071,2.3078,2.2991,2.2991,2.2991,2.299,0,2.2958,2.2976,2.2998,2.3003,2.3011,2.3035,2.302,2.303,2.3017,2.3009,2.3034,2.3032,2.3041,2.3048,2.3036,2.3076,2.3066,2.3047,2.3017,2.3066,2.3081,2.3088,2.2995,2.2994,2.2993,2.2993,0,0,2.3051,2.3044,2.3052,2.3052,2.3051,2.3064,2.3086,2.3094,2.3101,2.3106,2.3121,2.314,2.3121,2.3125,2.3113,2.3128,2.317,2.3106,2.3105,2.3115,2.321,2.3222,2.323,2.3158,2.3159,2.316,2.3209,0,2.311,2.3146,2.313,2.3167,2.3181,2.3154,2.3172,2.3172,2.3165,2.3175,2.3167,2.3179,2.3156,2.3157,2.3171,2.3162,2.3189,2.3159,2.3169,2.317,2.3166,2.3239,2.3252,2.3298,2.3215,2.3216,2.3217,0,2.3184,2.3189,2.3228,2.322,2.3226,2.3242,2.3246,2.3257,2.3256,2.3249,2.3252,2.3235,2.3253,2.3225,2.3247,2.3227,2.3231,2.3227,2.3228,2.3226,2.3194,2.3235,2.3313,2.3319,2.3227,2.3226,2.3225,0,2.3242,2.326,2.3284,2.3286,2.3279,2.329,2.3288,2.3285,2.329,2.3293,2.3295,2.3302,2.3304,2.3308,2.3292,2.3274,2.3316,2.3287,2.3308,2.3308,2.3316,2.3315,2.3392,2.3324,2.3324,2.3324,2.3324,0,2.3308,2.3332,2.331,2.3324,2.3349,2.333,2.3354,2.3349,2.3346,2.3357,2.3335,2.3345,2.3325,2.3333,2.3321,2.3339,2.3341,2.3335,2.333,2.3335,2.3335,2.3335,2.333,2.3325,2.3325,2.3325,2.3324,0,2.3377,2.3364,2.3387,2.3378,2.3377,2.3395,2.3386,2.3398,2.3389,2.3403,2.3405,2.339,2.3398,2.3383,2.339,2.3381,2.3406,2.3399,2.3406,2.3403,2.3423,2.342,2.35,2.3508,2.3438,2.3438,2.3439,0,2.3418,2.3435,2.3427,2.3433,2.3432,2.3442,2.3446,2.3428,2.3432,2.343,2.3441,2.3448,2.3451,2.3465,2.3454,2.3458,2.3448,2.3476,2.3449,2.3451,2.3444,2.3442,2.3442,2.3481,2.3482,2.3482,2.3483,0,2.3491,2.3483,2.349,2.3494,2.3499,2.3501,2.3502,2.3508,2.3488,2.3494,2.3502,2.3505,2.351,2.3515,2.3516,2.3512,2.3493,2.3492,2.3496,2.3499,2.3501,2.3497,2.3418,2.3489,2.3489,2.3488,2.3488,2.3488,2.3545,2.3557,2.3552,2.356,2.3558,2.3558,2.3568,2.3559,2.3565,2.3568,2.3557,2.3566,2.3561,2.356,2.3557,2.3563,2.355,2.3558,2.3559,2.356,2.3562,2.3503,2.3564,2.3563,2.3563,2.3563,2.3563,0,2.3614,2.3609,2.3616,2.3616,2.3621,2.3604,2.3602,2.3607,2.3616,2.3613,2.3616,2.3623,2.3628,2.3616,2.3618,2.3625,2.3616,2.3626,2.3623,2.3622,2.3575,2.3569,2.3632,2.3632,2.3632,2.3632,2.3632,2.3632,2.365,2.3668,2.3659,2.3675,2.367,2.3678,2.3678,2.3678,2.3675,2.3683,2.3686,2.3679,2.3672,2.3673,2.3675,2.3671,2.3671,2.3683,2.3677,2.3633,2.3626,2.3619,2.3613,2.3685,2.3685,2.3722,2.3722,2.3723]}]]